Regional Weather Roundup
Issued by NWS Cleveland, OH

Home | Current Version | Previous Version | Graphics & Text | Print | Product List | Glossary On
Versions: 1 2 3 4 5 6 7 8 9 10 11 12 13 14 15 16 17 18 19 20 21 22 23 24 25 26 27 28 29 30 31 32 33 34 35 36 37 38 39 40 41 42 43 44 45 46 47 48 49 50
000
ASUS41 KCLE 281800
RWRCLE
OHIO REGIONAL WEATHER ROUNDUP
NATIONAL WEATHER SERVICE WILMINGTON, OH
100 PM EST WED JAN 28 2015

NOTE: "FAIR" INDICATES FEW OR NO CLOUDS BELOW 12,000 FEET WITH NO
SIGNIFICANT WEATHER AND/OR OBSTRUCTIONS TO VISIBILITY.

OHZ001>008-015>018-024>027-034-035-043-044-281900-
   NORTHWEST OHIO

CITY           SKY/WX    TMP DP  RH WIND       PRES   REMARKS
DEFIANCE       SUNNY     24  11  57 S6        30.34F WCI  17
FINDLAY        SUNNY     22  13  68 S8        30.33F WCI  12
TOLEDO EXPRESS SUNNY     25  14  63 VRB3      30.33F
TOLEDO EXEC    SUNNY     24  13  62 S7        30.35F WCI  16
LIMA           SUNNY     23  13  65 S8        30.31F WCI  14
$$

OHZ009>014-019>023-028>033-038-089-281900-
   NORTHEAST OHIO

CITY           SKY/WX    TMP DP  RH WIND       PRES   REMARKS
CLE-HOPKINS    MOSUNNY   24  15  68 CALM      30.36F
CLE-LAKEFRONT  SUNNY     21  15  78 NW5       30.34F WCI  15
CUY CO. ARPT   MOSUNNY   27  16  63 VRB3      30.33F
LORAIN-ELYRIA  SUNNY     21  13  71 SW7       30.34F WCI  12
ASHTABULA      SUNNY     22   3  44 CALM      30.31F
AKRON-CANTON   MOSUNNY   22  10  60 S3        30.31F
WOOSTER        NOT AVBL
MANSFIELD      SUNNY     22  14  71 CALM      30.30F
YOUNGSTOWN     MOSUNNY   20   8  60 CALM      30.30F
$$

OHZ042-051>053-060>062-070>072-077>081-281900-
  SOUTHWEST OHIO

CITY           SKY/WX    TMP DP  RH WIND       PRES   REMARKS
CINC-COVINGTON MOSUNNY   31  17  56 SE8       30.33F WCI  23
CINC-LUNKEN    SUNNY     30  16  56 S7        30.38F WCI  23
HAMILTON       SUNNY     31  16  54 VRB6      30.36F WCI  25
DAYTON         NOT AVBL
WRIGHT-PAT AFB SUNNY     27  14  58 S3        30.34F
DAYTON GENERAL SUNNY     27  16  63 S8        30.32F WCI  19
WILMINGTON     SUNNY     26  14  60 SE6       30.32F WCI  19
$$

OHZ036-037-039>041-045>050-054>059-063>069-073>076-082>088-281900-
  CENTRAL AND SOUTHEAST OHIO

CITY           SKY/WX    TMP DP  RH WIND       PRES   REMARKS
COLUMBUS       MOSUNNY   23  14  68 S3        30.35F
OSU AIRPORT    SUNNY     25  14  63 VRB3      30.34F
BOLTON FIELD   SUNNY     21  14  73 S3        30.36F
RICKENBACK AFB NOT AVBL
NEWARK         SUNNY     23  13  65 S3        30.34F
MARION         SUNNY     20  12  71 S6        30.33F WCI  12
LANCASTER      SUNNY     25  15  66 NE3       30.36F
ZANESVILLE     SUNNY     24  12  60 CALM      30.35F
NEW PHILLY     SUNNY     24  11  57 CALM      30.35F
$$



USA.gov is the U.S. government's official web portal to all federal, state and local government web resources and services.